www.pogodaiklimat.ru

Погода и климат >> Архив погоды >> Россия >> Новосибирская область >> Новосибирск


АРХИВ ПОГОДЫ в Новосибирске

Время (UTC), дата Ветер
(напр.,м/с)
 
Видим.   Явления Облачность Т
(С)
Тd
(С)
f
(%)
Тe
(С)
Тes
(С)
Комфортность P
(гПа)
Po
(гПа)
Тmin
(С)
Tmax
(С)
R
(мм)
R24
(мм)
S
(см)
06 13.09 ЮЗ 3 12 км слабый ливневой дождь 10/10 600 м
[Cb cap]
+10.0 +7.9 87 +8 +8 1023.1 1007.0
09 13.09 Ю 4 17 км в посл. час ливневой дождь 10/10 300 м
[Cb cap]
+12.6 +9.7 82 +11 +11 1022.3 1006.3
12 13.09 ЮЗ 4 13 км слабый ливневой дождь 10/10 600 м
[Cb cap]
+13.4 +8.3 71 +12 +12 1022.4 1006.5 +14.1 2
15 13.09 Ю 2 20 км {ливн. осадки} 10/10 600 м
[Cb cap]
+11.9 +8.7 81 +11 +11 1022.5 1006.5
18 13.09 Ю 3 20 км {ливн. осадки} 10/10 600 м
[Cb cap]
+11.5 +7.6 77 +10 +10 1021.7 1005.6
21 13.09 Ю 4 20 км 8/4 1000 м
[Sc Ac trans]
+11.3 +6.6 73 +9 +9 1020.3 1004.3
00 14.09 Ю 6-10
{12}
20 км 9/9 1000 м
[Sc]
+11.1 +6.1 71 +8 +8 1018.1 1002.1 +11.0 0.3
03 14.09 Ю 7-11
{13}
20 км 10/6 1000 м
[Sc Ac und]
+11.8 +5.9 67 +9 +9 1016.6 1000.6 +11.0
06 14.09 Ю 7-13
{15}
24 км 9/0
[Ac As Ci fib]
+16.3 +5.9 50 +15 +16 1013.8 998.2
09 14.09 Ю 7-12
{15}
25 км 10/8 1000 м
[Sc Ac und]
+18.3 +5.4 43 +18 +18 1011.1 995.6
12 14.09 ЮЗ 4
{13}
15 км слабый ливневой дождь 10/10 600 м
[Cb cap]
+17.0 +6.3 49 +17 +17 1010.8 995.3 +18.8 0.0
15 14.09 ЮЗ 3
{11}
20 км в посл. час ливневой дождь 8/8 300 м
[Cb cap]
+13.4 +9.8 79 +12 +12 1011.7 996.0
18 14.09 Ю 4 20 км {ливн. осадки} 6/6 1000 м
[Sc]
+13.6 +9.1 74 +12 +12 1010.6 994.9
21 14.09 ЮЗ 3 20 км 3/0
[Ci fib]
+12.3 +8.0 75 +11 +11 1010.2 994.4
00 15.09 ЮЗ 4 20 км 6/4 600 м
[Cb cap Ac trans]
+12.0 +8.3 78 +10 +10 1009.5 993.8 +11.8 2
03 15.09 ЮЗ 3 24 км 9/4 600 м
[Sc Ac trans Cc]
+14.6 +9.7 72 +14 +15 1010.2 994.6
06 15.09 З 5-12
{12}
25 км 9/9 600 м
[Cb cap]
+17.0 +7.7 54 +16 +17 1010.3 994.8
09 15.09 З 5-10
{12}
29 км 10/10 600 м
[Cb cap]
+17.4 +6.6 49 +17 +17 1011.0 995.5
12 15.09 З 2
{10}
24 км 10/10 600 м
[Sc]
+16.2 +6.7 53 +16 +16 1012.0 996.4 +18.3
15 15.09 ЮЗ 2 20 км 9/8 1000 м
[Sc Ac trans]
+13.6 +7.1 65 +13 +13 1012.9 997.1
18 15.09 ЮЗ 1 20 км 10/10 600 м
[Sc]
+12.4 +7.5 72 +13 +13 1012.7 996.9
21 15.09 ЮЗ 1 20 км 10/8 600 м
[Sc Ac As]
+11.5 +7.2 75 +11 +11 1012.5 996.6
00 16.09 З 2 20 км 9/9 600 м
[Sc]
+10.9 +7.9 82 +10 +10 1012.5 996.6 +10.6
03 16.09 З 4 22 км 8/8 600 м
[Cu Sc]
+11.9 +7.1 72 +10 +10 1013.8 997.9
06 16.09 З 3 24 км 10/10 600 м
[Cb cap]
+12.6 +4.6 58 +11 +11 1014.5 998.7
09 16.09 З 4 25 км 10/10 600 м
[Cb cap]
+12.3 +5.0 61 +11 +11 1015.1 999.2
12 16.09 З 2 28 км слабый ливневой дождь 10/10 600 м
[Cb cap]
+10.3 +5.2 71 +9 +9 1015.9 999.9 +13.4 0.0
15 16.09 З 2 20 км {ливн. осадки} 6/6 1000 м
[Sc]
+8.3 +5.0 80 +6 +6 1017.2 1001.1
18 16.09 З 2 20 км {ливн. осадки} 9/9 600 м
[Cb cap]
+8.2 +6.2 87 +6 +6 1017.6 1001.5
21 16.09 СЗ 3 10 км слабый ливневой дождь 10/10 600 м
[Cb cap]
+8.3 +6.8 90 +6 +6 1017.8 1001.7
00 17.09 СЗ 1 20 км {ливн. осадки} 10/10 600 м
[Cb cap]
+7.3 +5.7 90 +6 +6 1019.1 1002.8 +7.2 0.8
03 17.09 СЗ 2 17 км 9/9 600 м
[Cb cap]
+7.6 +5.2 85 +6 +6 1020.7 1004.5 +6.9
06 17.09 С 4 24 км 8/8 600 м
[Cb cap]
+10.5 +1.1 52 +8 +9 1021.4 1005.3
09 17.09 СВ 1 27 км 10/10 600 м
[Cb cap]
+10.1 +0.9 53 +10 +10 1022.3 1006.2
12 17.09 СЗ 3 23 км 9/9 1000 м
[Sc]
+9.8 +0.2 51 +8 +8 1023.1 1007.0 +11.5
15 17.09 З 1 20 км 8/8 1000 м
[Sc]
+3.6 +1.4 86 +2 +2 1025.3 1008.8
18 17.09 З 1 20 км 8/8 1000 м
[Sc]
+4.0 +1.1 81 +3 +3 1025.9 1009.4
21 17.09 З 1 20 км 3/3 1000 м
[Sc]
+0.5 -1.1 89 -2 -2 1026.8 1010.0
00 18.09 З 1 20 км ясно -0.5 -1.8 91 -3 -3 1028.1 1011.3 -0.5
03 18.09 СЗ 1 18 км 4/0
[Ci fib]
+5.1 +2.0 80 +4 +7 1029.4 1012.9 -0.7
06 18.09 СЗ 2 22 км 3/0
[Ci fib]
+11.2 -1.4 41 +10 +17 1029.5 1013.3
09 18.09 СЗ 3 26 км 1/0
[Ci fib]
+13.3 -2.2 34 +12 +16 1028.7 1012.6
12 18.09 СЗ 1 28 км 6/0
[Ci fib]
+12.5 -1.7 37 +13 +13 1028.7 1012.6 +13.8
15 18.09 штиль 0 20 км 6/0
[Ci fib]
+2.3 0.0 85 +1 +1 1030.4 1013.7
18 18.09 штиль 0 20 км 4/0
[Ci fib]
+0.2 -1.1 91 -1 -1 1031.0 1014.1
21 18.09 штиль 0 1000 м дымка 3/0
[Ci fib]
-1.1 -2.1 93 -2 -2 1031.0 1014.0
00 19.09 штиль 0 500 м туман 3/0
[Ci fib]
-2.3 -3.2 94 -4 -4 1031.4 1014.4 -2.3
03 19.09 В 1 12 км {туман} 4/0
[Ci fib]
+7.4 -2.8 48 +7 +9 1031.2 1014.8 -2.5
06 19.09 ЮВ 4 23 км {туман} 8/0
[Ci fib]
+13.3 -2.1 34 +12 +16 1029.8 1013.7
09 19.09 ЮВ 3 19 км 3/0
[Ci fib]
+15.5 -2.1 30 +15 +19 1027.4 1011.5
12 19.09 ЮВ 1 22 км 1/0
[Ci fib]
+14.1 -2.7 31 +15 +15 1025.8 1009.9 +15.9
15 19.09 штиль 0 20 км ясно +4.0 +1.0 81 +3 +3 1025.4 1008.9
18 19.09 С 1 20 км 3/0
[Ci fib]
+1.6 0.0 89 -0 -0 1024.3 1007.7
21 19.09 СВ 1 20 км ясно +1.8 +0.1 88 0 0 1022.6 1006.0
00 20.09 штиль 0 20 км 4/0
[Ci fib]
+1.3 -0.7 87 0 0 1021.3 1004.7 +0.7

 

Местоположение метеостанции Новосибирск (Новосибирская область, Россия): широта 54.90 долгота 82.95 высота над уровнем моря 131 м.

В архиве по умолчанию представлена погода в Новосибирске за последнюю неделю. Архивные данные за месяц целиком и за предыдущие месяцы, начиная с января 2011 года, Вы можете получить, выбрав интересующий диапазон дат из раскрывающегося списка и нажав кнопку "Ввод!".


*Определитесь, кто Вы:
робот инопланетянин человек

Внимание! Время в таблицах - всемирное. Для получения местного времени необходимо прибавить поправку, которая в Новосибирске равна 7 ч.

Смотрите также архив погоды в соседних городах и на ближайших метеорологических станциях:

Погода в Обской ГМО (Новосибирская область, Россия) (6 км)
Погода в Учебной (Новосибирская область, Россия) (8 км)
Погода в Новосибирск планетарии (Новосибирская область, Россия) (10 км)
Погода в Новом (Новосибирская область, Россия) (17 км)
Погода в Искитиме (Новосибирская область, Россия) (37 км)
Погода в Коченево (Новосибирская область, Россия) (48 км)
Погода в Колывани (Новосибирская область, Россия) (49 км)
Погода в Мошково (Новосибирская область, Россия) (62 км)
Погода в Дальнем (Новосибирская область, Россия) (65 км)
Погода в Посевной (Новосибирская область, Россия) (71 км)

Пояснения к столбцам:

Ветер - указаны скорость ветра в м/с - средняя за 10 мин, порывы в срок и между сроками (в фигурных скобках) и направление, откуда дует ветер: С - северный, СВ - северо-восточный, В - восточный, ЮВ - юго-восточный, Ю - южный, ЮЗ - юго-западный, З - западный, СЗ - северо-западный.
Видимость - горизонтальная дальность видимости в метрах или километрах. При видимости от 1 до 10 км при отсутствии осадков обычно наблюдается дымка, при ухудшении видимости до 1 км и менее - туман. В сухую погоду видимость может ухудшаться дымом, пылью или мглою.
Явления - указаны атмосферные явления, наблюдавшиеся в срок или в последний час перед сроком; фигурными скобками обозначены явления, наблюдавшиеся между сроками (за 1-3 часа до срока); квадратными скобками обозначены град или гололедные отложения с указанием их диаметра в мм.
Облачность - указаны через наклонную черту общая и нижняя облачность в баллах и высота нижней границы облаков в метрах; квадратными скобками обозначены формы облаков: Ci - перистые, Cs - перисто-слоистые, Cc - перисто-кучевые, Ac - высококучевые, As - высокослоистые, Sc - слоисто-кучевые, Ns - слоисто-дождевые, Cu - кучевые, Cb - кучево-дождевые. Подробнее классификацию облаков см. в Атласе облаков (PDF).
T - Температура воздуха - температура, измеренная на высоте 2 м над землей.
Td - Температура точки росы - температура, при понижении до которой содержащийся в воздухе водяной пар достигнет насыщения.
f - Относительная влажность воздуха - влажноcть воздуха, измеренная на высоте 2 м над землей.
Te - Эффективная температура - температура, которую ощущает одетый по сезону человек в тени. Характеристика душности погоды. При расчете учитывается влияние влажности воздуха и скорости ветра на теплоощущения человека.
Tes - Эффективная температура на солнце - температура, которую ощущает человек, с поправкой на солнечный нагрев. Характеристика знойности погоды. Зависит от высоты солнца над горизонтом, облачности и скорости ветра. Ночью, в пасмурную погоду, а также при ветре 12 м/с и более поправка равна нулю.
P - Атмосферное давление - приведенное к уровню моря атмосферное давление.
Po - Атмосферное давление - измеренное на уровне метеостанции атмосферное давление.
Tmin - Минимальная температура - минимум температуры воздуха на высоте 2 м над землей.
Tmax - Максимальная температура - максимум температуры воздуха на высоте 2 м над землей.
R - Количество осадков - Количество выпавших осадков за период времени, мм. При наведении курсора мыши на число - период времени, за который выпало указанное количество осадков.
R24 - Количество осадков - Количество выпавших осадков за 24 часа, мм.
S - Снежный покров - Высота снежного покрова, см. При наведении курсора мыши на число - состояние снежного покрова и степень покрытия местности в баллах.